Regional Weather Roundup
Issued by NWS

Home | Current Version | Previous Version | Graphics & Text | Print | Product List | Glossary On
Versions: 1 2 3 4 5 6 7 8 9 10 11 12 13 14 15 16 17 18 19 20 21 22 23 24 25 26 27 28 29 30 31 32 33 34 35 36 37 38 39 40 41 42 43 44 45 46 47 48 49 50
000
ASUS43 KBIS 271510
RWRND

NORTH DAKOTA REGIONAL WEATHER ROUNDUP
NATIONAL WEATHER SERVICE BISMARCK ND
1000 AM CDT MON APR 27 2015

NOTE: "FAIR" INDICATES FEW OR NO CLOUDS BELOW 12,000 FEET WITH NO
SIGNIFICANT WEATHER AND/OR OBSTRUCTIONS TO VISIBILITY.


NDZ001>003-009>011-017-271600-
NORTHWEST NORTH DAKOTA

CITY           SKY/WX    TMP DP  RH WIND       PRES   REMARKS
WILLISTON      LGT RAIN  44  39  82 NW6       30.32S
MINOT          LGT RAIN  41  38  89 NW9       30.28R
MINOT AFB      LGT RAIN  41  41 100 NW12      30.28R
$$

NDZ018>021-031>035-040>046-271600-
SOUTHWEST NORTH DAKOTA

CITY           SKY/WX    TMP DP  RH WIND       PRES   REMARKS
BISMARCK       CLOUDY    46  44  93 N12       30.26R
DICKINSON      CLOUDY    41  38  89 NW8       30.29R
GARRISON         N/A     42  39  89 N8        30.29R
HETTINGER ARPT CLOUDY    41  39  93 NW15      30.30R FOG
$$

NDZ004>008-012>016-024-026-027-054-271600-
NORTHEAST NORTH DAKOTA

CITY           SKY/WX    TMP DP  RH WIND       PRES   REMARKS
GRAND FORKS    PTSUNNY   56  45  66 N6        30.22R
GRND FRKS AFB  SUNNY     56  45  65 NE7       30.22S
DEVILS LAKE    CLOUDY    48  37  66 N10       30.24R
$$

NDZ022-023-025-028>030-036>039-047>053-271600-
SOUTHEAST NORTH DAKOTA

CITY           SKY/WX    TMP DP  RH WIND       PRES   REMARKS
FARGO          SUNNY     58  27  30 SW7       30.24R
JAMESTOWN      MOSUNNY   55  36  48 NW5       30.22R
$$




USA.gov is the U.S. government's official web portal to all federal, state and local government web resources and services.